Location: Potomac
(46.8816°N, 113.5795°W)
Time: 21:21:56
(UTC+00:00)

ISS - Visible Passes

Search period start: 19 January 2022 00:00
Search period end: 29 January 2022 00:00
Orbit: 413 x 422 km, 51.6° (Epoch: 19 January)

Date Brightness Start Highest point End Pass type
(mag) Time Alt. Az. Time Alt. Az. Time Alt. Az.
19 Jan -2.2 02:33:12 10° SW 02:35:11 31° SSW 02:35:11 31° SSW visible
20 Jan -2.9 01:45:34 10° SSW 01:48:36 34° SE 01:49:26 29° ESE visible
20 Jan -0.4 03:22:01 10° W 03:22:23 12° W 03:22:23 12° W visible
21 Jan -2.1 00:58:13 10° SSW 01:00:52 22° SE 01:03:32 10° E visible
21 Jan -2.9 02:34:03 10° WSW 02:36:38 49° W 02:36:38 49° W visible
22 Jan -3.8 01:46:15 10° WSW 01:49:34 80° SSE 01:50:53 34° ENE visible
22 Jan -0.4 03:23:25 10° WNW 03:23:50 13° WNW 03:23:50 13° WNW visible
23 Jan -3.4 00:58:36 10° SW 01:01:52 52° SSE 01:05:07 10° ENE visible
23 Jan -2.6 02:35:31 10° W 02:38:06 38° NW 02:38:06 38° NW visible
24 Jan -3.4 01:47:41 10° W 01:50:57 54° NNW 01:52:24 29° NE visible
24 Jan -0.4 03:25:04 10° WNW 03:25:21 12° WNW 03:25:21 12° WNW visible
25 Jan -3.7 00:59:58 10° WSW 01:03:18 73° NNW 01:06:39 10° ENE visible
25 Jan -2.3 02:37:19 10° WNW 02:39:42 31° NNW 02:39:42 31° NNW visible
26 Jan -2.8 01:49:36 10° W 01:52:46 37° N 01:54:06 26° NE visible
26 Jan -0.4 03:26:50 10° WNW 03:27:03 11° WNW 03:27:03 11° WNW visible
27 Jan -3.0 01:01:58 10° W 01:05:10 43° NNW 01:08:24 10° ENE visible
27 Jan -2.2 02:39:18 10° WNW 02:41:31 30° NNW 02:41:31 30° NNW visible
28 Jan -2.8 01:51:47 10° WNW 01:54:53 34° N 01:56:03 26° NE visible
28 Jan -0.4 03:28:44 10° WNW 03:29:02 12° WNW 03:29:02 12° WNW visible
